2024-173F (61232 NORAD) Tracking and Keplerian Element Data

This shows tracking and keplerian element data for the satellite.

Feedback or suggestion? Click here.




ElementValue
Catalog61232
Name2024-173F
Epoch Orbit280
Epoch Day286.84908805
Epoch Year2024
RAAN359.4641
Inclination97.4051
Eccentricity0.0012029
Argument of Perigee210.0354
Mean Anonmoly150.0196
Mean Motion15.25924938
Decay Rate0.00037688
L11 61232U 24173F 24286.84908805 .00037688 00000+0 14630-2 0 9992
L22 61232 97.4051 359.4641 0012029 210.0354 150.0196 15.25924938 2803



Live tracking and technical data element details for 2024-173F (NORAD 61232). 2024-173F can be tracked NOW for your location showing map with azimuth and elevation plus other details from your city location.







IsCatalogInMostPopularTable: catalog: 61232, numindb: 23
Update: records affected: 1



GetName: 61232 2024-173F

Hit Count: updated at: Wed, 04 Dec 2024 10:13:34 GMT